Torna al catalogo

KUIPER-00527

AttivoComunicazioniLEO
NORAD 69269·PAYLOAD·🇺🇸 United States

Lanciato May 29, 2026 da Vandenberg Space Force Base

Loading…

Prossimi Passaggi (prossime 24 ore)

TLE

AggiornatoSource: CelesTrak SupGP

Epoca: Sep 14, 2026, 21:15 UTC

1 69269C 26118C   26257.88547454  .00002515  00000+0  32915-3 0  2579
2 69269  51.8992   1.6490 0000430  99.9805 153.8232 14.79933668    16

Traccia KUIPER-00527 in tempo reale con AllMySat

Download on the App Store